Weather Roundup
Issued by NWS Chicago, IL

Home | Current Version | Previous Version | Graphics & Text | Print | Product List | Glossary On
Versions: 1 2 3 4 5 6 7 8 9 10 11 12 13 14 15 16 17 18 19 20 21 22 23 24 25 26 27 28 29 30 31 32 33 34 35 36 37 38 39 40 41 42 43 44 45 46 47 48 49 50
000
NZUS59 KLOT 171708
HRRLOT

CHICAGO AREA WEATHER ROUNDUP
NATIONAL WEATHER SERVICE CHICAGO/ROMEOVILLE IL
1100 AM CST SUN DEC 17 2017

NOTE: "FAIR" INDICATES FEW OR NO CLOUDS BELOW 12,000 FEET WITH NO
SIGNIFICANT WEATHER AND/OR OBSTRUCTIONS TO VISIBILITY.

* THESE STATIONS ARE NOT UNDER NWS QUALITY CONTROL. THEY ALSO MAY NOT
  REPORT WEATHER SUCH AS PRECIPITATION OR FOG.

ILZ005-006-012>014-019>023-171800-
NORTHEAST ILLINOIS

CITY           SKY/WX    TMP DP  RH WIND       PRES   REMARKS
OHARE          CLOUDY    37  34  89 NE6       30.04F FOG
MIDWAY         CLOUDY    37  31  78 S5        30.05F
AURORA         CLOUDY    37  35  92 E5        30.05F FOG
LANSING*       CLOUDY    36  32  87 S3        30.05F
JOLIET*        CLOUDY    37  32  82 CALM      30.06F
WAUKEGAN       CLOUDY    35  32  88 E8        30.05F FOG     WCI  29
DUPAGE AIRPORT CLOUDY    36  35  96 E6        30.04F FOG
WHEELING       CLOUDY    37  34  89 NE5       30.06F FOG
KANKAKEE*      CLOUDY    41  31  67 SW12      30.07F
MORRIS*        CLOUDY    36  30  79 CALM      30.05F
LEWIS AIRPORT* CLOUDY    35  31  85 CALM      30.05F
NORTHERLY ISL    N/A     35  32  88 SE1         N/A
$$

WIZ051-052-058>065-066-070>072-171800-
SOUTHEAST WISCONSIN

CITY           SKY/WX    TMP DP  RH WIND       PRES   REMARKS
MILWAUKEE      CLOUDY    34  31  88 E9        30.07F FOG     WCI  27
KENOSHA*       CLOUDY    35  31  85 E10       30.06F FOG     WCI  27
RACINE*        CLOUDY    34  31  88 E9        30.08F FOG     WCI  27
BURLINGTON     CLOUDY    50  50 100 E8        30.06F FOG
WAUKESHA       CLOUDY    30  28  93 E8        30.08F FOG     WCI  23
WEST BEND      CLOUDY    30  30 100 E10       30.07F WCI  21
$$

INZ001>003-010>013-019-020-171800-
NORTHWEST INDIANA

CITY           SKY/WX    TMP DP  RH WIND       PRES   REMARKS
GARY*          CLOUDY    37  30  75 S6        30.06F
MICHIGAN CITY* NOT AVBL
RENSSELAER*    NOT AVBL
VALPARAISO     CLOUDY    40  33  76 S5        30.05F
$$

LMZ740>746-171800-
SOUTHERN LAKE MICHIGAN

STATION/POSITION TIME  SKY/WX   TEMP WIND        PRES    VSBY
                                AIR  DIR/SP/G
                 (UTC)          (F)  (DEG/KT/KT) (MB)    (MI)
HARRISON CRIB    1640            37  180/  5/  6   N/A
BURNHAM HARBOR   1700            35  170/  2/  4   N/A
CALUMET HARBOR   1648            36  190/  4/  6 1017.0F
BURNS HARBOR     1640            37  190/  7/ 10 1018.3F
MICHIGAN CITY    1640            36  140/  9/ 11   N/A
$$

ABBREVIATIONS USED IN REMARKS
   TC - TEMPERATURE IN CELSIUS
  WCI - WIND CHILL INDEX
   HX - HEAT INDEX
  VSB - VISIBILITY
$$



USA.gov is the U.S. government's official web portal to all federal, state and local government web resources and services.